Location: Ladrillo (historical)
(32.8195°N, 117.2231°W)
Time: 04:01:18
(UTC+00:00)

Vanguard 3 - Pass Details

Date: 04 March 2021
Orbit: 508 x 3262 km, 33.3° (Epoch: 14 April)

Event Time Altitude Azimuth Distance (km) Brightness Sun altitude
Rises 01:25:50 0° 270° (W) 7,113 14.2 3.8°
Reaches altitude 10° 01:30:58 10° 271° (W) 5,900 13.7 2.7°
Maximum altitude 01:48:21 88° 2° (N) 2,140 9.3 -0.9°
Drops below altitude 10° 01:58:12 10° 93° (E) 3,568 9.8 -3.0°
Enters shadow 01:59:48 - 94° (E) 4,033 10.0 -3.3°
Sets 02:00:33 0° 94° (E) 4,263 - -3.4°
